一网星座-0235星 (ONEWEB-0235 )

导读

ONEWEB-0235是英国OneWeb(一网公司)低轨卫星互联网星座的组成卫星,于2021年5月28日发射入轨。OneWeb由英国政府参股,计划构建由600余颗低轨卫星组成的全球高速通信网络,旨在为全球提供低延时宽带互联服务,弥补地面网络覆盖盲区,支撑偏远地区通信与应急网络需求,是全球低轨卫星互联网建设的重要一环。

基本信息
目录编号:
48771
目录名称:
ONEWEB-0235
国际标识:
2021-045E
轨道中心:
EARTH
卫星名称:
一网星座-0235星
卫星全名:
一网星座-0235星 (ONEWEB-0235 )
卫星状态:
在轨 (已飞行1843 天)
发射日期:
2021-05-28 UTC
国别 :
英国 (GB)
星等 :
--
轨道信息
数据来源 国际轨道数据 AOE轨道数据
星历时间 2026-06-14T02:45:46+0800
15小时前
查看轨道信息
2026-06-14T03:00:00+0800
15小时前
查看轨道信息
半长轴 7579.911km 7579.909km
偏心率 0.0001596 0.0001303
轨道倾角 87.901° 87.902°
近地点辐角 107.536° 57.573°
升交点赤经 259.869° 259.864°
平近点角 252.595° 349.349°
近地点 1200.564km 1200.784km
远地点 1202.984km 1202.76km
周期 109.460分钟 109.460分钟
每日圈数 13.155479 13.155484
详细信息
平衡模式:
三轴稳定
覆盖范围:
全球
运营商:
一网卫星公司
运营商所在国:
英国
制造商(研发单位):
一网卫星公司
制造商所在国:
英国
使用方式:
暂无
卫星简介
OneWeb卫星网络由648颗重约125公斤的微型卫星组成,运行在1200公里的轨道上。 每颗卫星都能够提供至少每秒8千兆位的吞吐量,以使用其高吞吐量的Ku频段有效载荷为家庭和移动平台提供互联网接入。该卫星仍在工作。
2D轨道图
3D轨道图
轨道高度分析图
轨道倾角分析图
轨道综合分析图
查看轨道综合分析图